Hayward, WI

4:47 AM CDT on June 24, 2017 (GMT -0500)
Sawyer County

Weather History for KHYR - March, 2012

Change the Weather History Date:

Saturday, March 10, 2012

  Actual Average Record
Temperature  
Mean Temperature 41 °F -  
Max Temperature 55 °F 33 °F 61 °F (2015)
Min Temperature 27 °F 5 °F -14 °F (2003)
Degree Days  
Heating Degree Days 24    
Moisture  
Dew Point 21 °F    
Average Humidity 46    
Maximum Humidity 72    
Minimum Humidity 29    
Precipitation  
Precipitation 0.00 in - - ()
Sea Level Pressure  
Sea Level Pressure 29.97 in    
Wind  
Wind Speed 9 mph (SSW)    
Max Wind Speed 13 mph    
Max Gust Speed 23 mph    
Visibility 10 miles    
Events      
Averages and records for this station are not official NWS values.
T = Trace of Precipitation, MM = Missing Value Source: NWS Daily Summary

Daily Weather History Graph

Daily Weather History Graph

Search for Another Location

Airport or City:

Trip Planner

Search our weather history database for the weather conditions in past years. The results will help you decide how hot, cold, wet, or windy it might be!

Date:

Astronomy

Mar. 10, 2012 Rise Set
Actual Time 6:26 AM CST 6:05 PM CST
Civil Twilight 5:57 AM CST 6:35 PM CST
Nautical Twilight 5:22 AM CST 7:10 PM CST
Astronomical Twilight 4:47 AM CST 7:45 PM CST
Moon 9:33 PM CST (3/10) 7:10 AM CST (3/10)
Length of Visible Light 12h 38m
Length of Day
11h 38m
Waning Gibbous, 92% of the Moon is Illuminated
Mar 10
Waning Gibbous
Mar 14
Last Quarter
Mar 22
New
Mar 30
First Quarter
Apr 6
Full

Hourly Weather History & Observations

Time (CST) Temp. Windchill Dew Point Humidity Pressure Visibility Wind Dir Wind Speed Gust Speed Precip Events Conditions
12:53 AM 27.0 °F 16.7 °F 9.0 °F 47% 30.21 in 10.0 mi SSE 11.5 mph 23.0 mph N/A   Clear
1:53 AM 27.0 °F 16.1 °F 9.0 °F 47% 30.15 in 10.0 mi South 12.7 mph 19.6 mph N/A   Clear
2:53 AM 27.0 °F 16.7 °F 9.0 °F 47% 30.12 in 10.0 mi South 11.5 mph 21.9 mph N/A   Clear
3:53 AM 28.0 °F 18.1 °F 10.0 °F 47% 30.08 in 10.0 mi South 11.5 mph 19.6 mph N/A   Clear
4:53 AM 28.0 °F 19.3 °F 12.0 °F 51% 30.03 in 10.0 mi South 9.2 mph 20.7 mph N/A   Clear
5:53 AM 28.0 °F 19.3 °F 12.9 °F 53% 29.99 in 10.0 mi South 9.2 mph - N/A   Clear
6:53 AM 28.9 °F 19.8 °F 15.1 °F 56% 29.96 in 10.0 mi South 10.4 mph - N/A   Clear
7:53 AM 34.0 °F 25.5 °F 19.0 °F 54% 29.94 in 10.0 mi South 11.5 mph 17.3 mph N/A   Clear
8:53 AM 41.0 °F 35.8 °F 23.0 °F 49% 29.94 in 10.0 mi SSW 8.1 mph 19.6 mph N/A   Clear
9:53 AM 43.0 °F 37.7 °F 24.1 °F 47% 29.93 in 10.0 mi SSW 9.2 mph 20.7 mph N/A   Clear
10:53 AM 48.0 °F - 24.1 °F 39% 29.92 in 10.0 mi SW 8.1 mph 18.4 mph N/A   Clear
11:53 AM 50.0 °F - 24.1 °F 36% 29.92 in 10.0 mi SSW 10.4 mph - N/A   Clear
12:53 PM 52.0 °F - 24.1 °F 34% 29.91 in 10.0 mi Variable 6.9 mph - N/A   Clear
1:53 PM 54.0 °F - 25.0 °F 33% 29.91 in 10.0 mi SSW 11.5 mph 17.3 mph N/A   Clear
2:53 PM 55.0 °F - 25.0 °F 31% 29.91 in 10.0 mi South 5.8 mph - N/A   Clear
3:53 PM 55.9 °F - 24.1 °F 29% 29.92 in 10.0 mi SSW 8.1 mph - N/A   Clear
4:53 PM 55.9 °F - 25.0 °F 30% 29.92 in 10.0 mi WSW 8.1 mph - N/A   Clear
5:53 PM 52.0 °F - 27.0 °F 38% 29.93 in 10.0 mi SSW 3.5 mph - N/A   Clear
6:53 PM 39.9 °F - 28.0 °F 63% 29.95 in 10.0 mi Calm Calm - N/A   Clear
7:53 PM 36.0 °F - 27.0 °F 70% 29.95 in 10.0 mi Calm Calm - N/A   Clear
8:53 PM 35.1 °F - 27.0 °F 72% 29.95 in 10.0 mi Calm Calm - N/A   Clear
9:53 PM 50.0 °F - 30.9 °F 48% 29.94 in 10.0 mi SSW 5.8 mph - N/A   Clear
11:53 PM 48.9 °F - 28.9 °F 46% 29.94 in 10.0 mi SSW 4.6 mph - N/A   Clear